Charter Quote
Worldwide +1-877-727-2538 Call
Select Language Lang
SAFETY RELIABILITY EXPERIENCE

Private Jet Charter Services - Zhongchuan (ZLLL)

Paramount Business Jets offers private jet charter flights and luxury airliner charters to and from Zhongchuan.

AIRPORT INFORMATION
ICAOZLLL
IATAZGC
LOCATIONLanzhou, China
FACILITY TYPEAIRPORT

At Paramount Business Jets you can hire chartered private jets to and from Zhongchuan with as little as 4 hours of notice. All flights booked via Paramount Business Jets are operated by certified direct air carriers that meet and exceed the FAA part 135 and 121 protocol or a foreign equivalent safety authority. Furthermore, Paramount Business Jets subscribes to ARGUS for their third party safety checks of operators, aircraft, and crews prior each and every flight to and from Zhongchuan and worldwide.

  • Quote a trip using Zhongchuan or call us 24/7 - 365 days a year at +1-877-727-2538.
Questions? Call +1-877-727-2538

METAR Weather Data at Zhongchuan, ZLLL, ZGC

STATIONZLLL
OBSERVEDThu Nov 14, 16:00 UTC
NOWThu Nov 14, 16:29 UTC
AGE29 min ago
WINDNW at 7 mph
VISIBILITYgreater than 7 miles
CLOUDSclear skies
TEMP25°F (-4°C)
WIND CHILL17°F (-8°C)
DEWPT12°F (-11°C)
HUMIDITY59%
BAROMETER1018 hPa (30.06 in Hg)
METARZLLL 141600Z 32003MPS CAVOK M04/M11 Q1018 NOSIG

Call us on +1-877-727-2538 (24 Hours), Check our Pricing, or Get a Quick Quote.

Find Airports Near any Location

Processing
...